Language: 


Des rapports , des résumés tant et plus, au choix de chacun....


Données statistiques de la station
Quotidien Rapport Mai 4, 2017 Unités:  Métrique    Anglais   les deux
« Précédent Jour
Suivant Jour »
Quotidien Hebdomadaire Mensuel Annuel Actuel
  Haut: Bas: Moyen:
Température: 17.6 °C 9.2 °C 12.8 °C
Pt de rosée: 14.0 °C 9.0 °C 11 °C
Humidité: 98 % 66 % 88 %
Vitesse du vent: 20.1 km/h 1.4 km/h 10.3 km/h
Rafales: 23.8 km/h - -
Vent:- - ESE
Pression: 1018.8 hPa 1016.1 hPa -
Précipitation: 0.0 mm    
Historical Graphs
 
 
Données statistiques pour Mai 4, 2017
Heure Température Point de rosée Pression Vent Vitesse du vent Refales Humidité Pluie (taux horaire)
00:02 9.3 °C 9.0 °C 1018.2 hPa NE 7.2 km/h 8.7 km/h 94 % 0.0 mm
00:07 9.2 °C 9.0 °C 1018.2 hPa NNE 7.9 km/h 9.0 km/h 94 % 0.0 mm
00:12 9.3 °C 9.0 °C 1018.2 hPa North 6.1 km/h 10.5 km/h 95 % 0.0 mm
00:13 9.3 °C 9.0 °C 1018.2 hPa NNE 5.0 km/h 10.5 km/h 95 % 0.0 mm
00:18 9.3 °C 9.0 °C 1018.2 hPa NE 6.9 km/h 10.5 km/h 95 % 0.0 mm
00:23 9.4 °C 9.0 °C 1018.2 hPa NE 6.1 km/h 8.7 km/h 95 % 0.0 mm
00:28 9.4 °C 9.0 °C 1018.2 hPa NNE 5.8 km/h 8.7 km/h 96 % 0.0 mm
00:33 9.4 °C 9.0 °C 1018.2 hPa North 5.0 km/h 7.6 km/h 96 % 0.0 mm
00:38 9.5 °C 9.0 °C 1018.2 hPa North 4.7 km/h 7.6 km/h 96 % 0.0 mm
00:43 9.6 °C 9.0 °C 1018.2 hPa NNE 5.8 km/h 9.3 km/h 96 % 0.0 mm
00:48 9.8 °C 9.0 °C 1018.2 hPa North 6.9 km/h 9.7 km/h 96 % 0.0 mm
00:53 10.0 °C 10.0 °C 1018.2 hPa North 6.1 km/h 9.7 km/h 96 % 0.0 mm
00:58 10.0 °C 10.0 °C 1018.2 hPa NNE 6.1 km/h 9.7 km/h 96 % 0.0 mm
01:04 10.1 °C 10.0 °C 1018.2 hPa North 4.7 km/h 9.3 km/h 96 % 0.0 mm
01:09 10.2 °C 10.0 °C 1018.2 hPa North 9.0 km/h 9.0 km/h 96 % 0.0 mm
01:14 10.2 °C 10.0 °C 1018.2 hPa NE 5.5 km/h 9.0 km/h 96 % 0.0 mm
01:19 10.3 °C 10.0 °C 1018.2 hPa North 7.6 km/h 10.1 km/h 96 % 0.0 mm
01:24 10.3 °C 10.0 °C 1018.2 hPa North 5.5 km/h 10.1 km/h 96 % 0.0 mm
01:29 10.3 °C 10.0 °C 1018.2 hPa North 6.1 km/h 9.7 km/h 96 % 0.0 mm
01:34 10.3 °C 10.0 °C 1018.2 hPa NE 5.5 km/h 9.3 km/h 96 % 0.0 mm
01:39 10.3 °C 10.0 °C 1018.2 hPa North 4.0 km/h 9.3 km/h 96 % 0.0 mm
01:44 10.3 °C 10.0 °C 1018.2 hPa NNE 4.3 km/h 8.7 km/h 96 % 0.0 mm
01:49 10.3 °C 10.0 °C 1018.2 hPa North 6.1 km/h 10.1 km/h 96 % 0.0 mm
01:54 10.3 °C 10.0 °C 1016.8 hPa NE 5.5 km/h 10.5 km/h 96 % 0.0 mm
01:59 10.3 °C 10.0 °C 1016.8 hPa NE 6.1 km/h 10.5 km/h 97 % 0.0 mm
02:04 10.3 °C 10.0 °C 1016.8 hPa North 8.7 km/h 9.0 km/h 97 % 0.0 mm
02:09 10.4 °C 10.0 °C 1016.8 hPa NNE 10.1 km/h 10.1 km/h 97 % 0.0 mm
02:10 10.3 °C 10.0 °C 1016.8 hPa NNE 9.3 km/h 10.1 km/h 97 % 0.0 mm
02:15 10.4 °C 10.0 °C 1016.8 hPa NE 8.7 km/h 10.1 km/h 97 % 0.0 mm
02:20 10.4 °C 10.0 °C 1016.8 hPa NE 9.0 km/h 10.5 km/h 97 % 0.0 mm
02:25 10.4 °C 10.0 °C 1016.8 hPa NE 9.0 km/h 10.5 km/h 97 % 0.0 mm
02:30 10.5 °C 10.0 °C 1016.8 hPa NNE 6.9 km/h 10.5 km/h 97 % 0.0 mm
02:35 10.5 °C 10.0 °C 1016.8 hPa NE 6.1 km/h 10.5 km/h 97 % 0.0 mm
02:40 10.6 °C 11.0 °C 1016.8 hPa NE 10.5 km/h 15.8 km/h 98 % 0.0 mm
02:45 10.6 °C 11.0 °C 1016.8 hPa NE 7.9 km/h 15.8 km/h 98 % 0.0 mm
02:50 10.7 °C 11.0 °C 1016.8 hPa ENE 13.7 km/h 13.7 km/h 98 % 0.0 mm
02:55 10.7 °C 11.0 °C 1016.8 hPa NNE 7.9 km/h 13.7 km/h 98 % 0.0 mm
03:00 10.8 °C 11.0 °C 1016.8 hPa NE 10.5 km/h 13.7 km/h 98 % 0.0 mm
03:05 10.8 °C 11.0 °C 1016.8 hPa ENE 10.5 km/h 13.0 km/h 98 % 0.0 mm
03:10 10.8 °C 11.0 °C 1016.8 hPa NE 9.3 km/h 10.8 km/h 98 % 0.0 mm
03:15 10.8 °C 11.0 °C 1016.8 hPa East 6.4 km/h 10.1 km/h 98 % 0.0 mm
03:20 10.7 °C 11.0 °C 1016.8 hPa NE 5.8 km/h 10.5 km/h 98 % 0.3 mm
03:25 10.7 °C 11.0 °C 1016.8 hPa ENE 9.3 km/h 11.9 km/h 98 % 0.3 mm
03:30 10.7 °C 11.0 °C 1016.8 hPa ENE 7.9 km/h 11.9 km/h 98 % 0.3 mm
03:35 10.7 °C 11.0 °C 1016.8 hPa NE 7.6 km/h 9.7 km/h 98 % 0.3 mm
03:40 10.7 °C 11.0 °C 1016.8 hPa ENE 7.9 km/h 9.3 km/h 98 % 0.3 mm
03:45 10.7 °C 11.0 °C 1016.8 hPa NE 7.6 km/h 9.7 km/h 98 % 0.3 mm
03:50 10.6 °C 11.0 °C 1016.8 hPa NE 5.0 km/h 9.7 km/h 98 % 0.5 mm
03:55 10.6 °C 11.0 °C 1016.8 hPa NE 6.1 km/h 8.7 km/h 98 % 0.5 mm
04:00 10.6 °C 11.0 °C 1016.8 hPa NE 7.6 km/h 9.7 km/h 98 % 0.5 mm
04:05 10.6 °C 11.0 °C 1016.8 hPa NE 6.1 km/h 9.7 km/h 98 % 0.5 mm
04:10 10.5 °C 11.0 °C 1016.8 hPa NNE 5.8 km/h 7.2 km/h 98 % 0.5 mm
04:13 10.5 °C 11.0 °C 1016.8 hPa ENE 3.2 km/h 7.9 km/h 98 % 0.5 mm
04:18 10.5 °C 11.0 °C 1016.8 hPa NNE 5.5 km/h 7.9 km/h 98 % 0.5 mm
04:23 10.4 °C 10.0 °C 1016.8 hPa North 6.4 km/h 7.9 km/h 98 % 0.3 mm
04:28 10.4 °C 10.0 °C 1016.8 hPa NNE 11.9 km/h 11.9 km/h 98 % 0.3 mm
04:33 10.3 °C 10.0 °C 1016.8 hPa North 4.7 km/h 11.9 km/h 98 % 0.5 mm
04:38 10.3 °C 10.0 °C 1016.8 hPa NNE 6.1 km/h 10.1 km/h 98 % 0.5 mm
04:43 10.3 °C 10.0 °C 1016.8 hPa NNE 6.4 km/h 10.1 km/h 98 % 0.5 mm
04:48 10.3 °C 10.0 °C 1016.8 hPa NNE 5.5 km/h 10.1 km/h 98 % 0.3 mm
04:53 10.3 °C 10.0 °C 1016.1 hPa NE 5.0 km/h 7.9 km/h 98 % 0.3 mm
04:58 10.3 °C 10.0 °C 1016.1 hPa NE 9.3 km/h 9.7 km/h 98 % 0.3 mm
05:03 10.2 °C 10.0 °C 1016.1 hPa East 5.8 km/h 10.5 km/h 98 % 0.3 mm
05:08 10.2 °C 10.0 °C 1016.8 hPa NNE 6.4 km/h 10.5 km/h 98 % 0.3 mm
05:13 10.2 °C 10.0 °C 1016.8 hPa NE 8.7 km/h 9.3 km/h 98 % 0.3 mm
05:18 10.2 °C 10.0 °C 1016.8 hPa NE 7.9 km/h 10.5 km/h 98 % 0.3 mm
05:23 10.2 °C 10.0 °C 1016.1 hPa NNE 9.3 km/h 10.5 km/h 98 % 0.3 mm
05:28 10.2 °C 10.0 °C 1016.1 hPa ENE 10.5 km/h 11.9 km/h 98 % 0.0 mm
05:34 10.2 °C 10.0 °C 1016.1 hPa NE 8.7 km/h 11.9 km/h 98 % 0.0 mm
05:39 10.2 °C 10.0 °C 1016.8 hPa North 5.0 km/h 11.9 km/h 98 % 0.0 mm
05:44 10.2 °C 10.0 °C 1016.8 hPa NNE 7.9 km/h 10.5 km/h 98 % 0.0 mm
05:49 10.2 °C 10.0 °C 1016.8 hPa NNW 6.1 km/h 10.5 km/h 98 % 0.0 mm
05:54 10.3 °C 10.0 °C 1018.2 hPa NE 10.5 km/h 13.0 km/h 98 % 0.0 mm
05:59 10.3 °C 10.0 °C 1018.2 hPa NE 9.0 km/h 13.0 km/h 98 % 0.0 mm
06:04 10.3 °C 10.0 °C 1018.2 hPa NNE 5.8 km/h 11.9 km/h 98 % 0.0 mm
06:09 10.3 °C 10.0 °C 1016.8 hPa NE 9.0 km/h 13.0 km/h 98 % 0.0 mm
06:14 10.3 °C 10.0 °C 1016.8 hPa North 10.5 km/h 13.7 km/h 98 % 0.0 mm
06:19 10.2 °C 10.0 °C 1016.8 hPa North 7.9 km/h 13.7 km/h 98 % 0.0 mm
06:24 10.2 °C 10.0 °C 1016.8 hPa NE 10.1 km/h 14.0 km/h 98 % 0.0 mm
06:29 10.2 °C 10.0 °C 1016.8 hPa North 12.2 km/h 14.0 km/h 98 % 0.0 mm
06:34 10.3 °C 10.0 °C 1016.8 hPa NE 8.7 km/h 13.0 km/h 98 % 0.0 mm
06:39 10.3 °C 10.0 °C 1016.8 hPa NNE 11.6 km/h 13.0 km/h 98 % 0.0 mm
06:44 10.3 °C 10.0 °C 1016.8 hPa NNE 9.7 km/h 13.7 km/h 98 % 0.0 mm
06:49 10.3 °C 10.0 °C 1016.8 hPa NE 13.0 km/h 14.0 km/h 98 % 0.0 mm
06:54 10.3 °C 10.0 °C 1016.8 hPa NE 10.5 km/h 14.0 km/h 98 % 0.0 mm
06:59 10.3 °C 10.0 °C 1016.8 hPa NE 10.8 km/h 14.3 km/h 98 % 0.0 mm
07:04 10.3 °C 10.0 °C 1016.8 hPa NNE 13.7 km/h 14.3 km/h 98 % 0.0 mm
07:10 10.4 °C 10.0 °C 1016.8 hPa NNE 10.1 km/h 14.0 km/h 98 % 0.0 mm
07:15 10.4 °C 10.0 °C 1016.8 hPa NE 12.2 km/h 13.0 km/h 98 % 0.0 mm
07:20 10.4 °C 10.0 °C 1016.8 hPa NNE 9.3 km/h 13.7 km/h 98 % 0.0 mm
07:25 10.4 °C 10.0 °C 1016.1 hPa NE 12.2 km/h 13.7 km/h 98 % 0.0 mm
07:30 10.4 °C 10.0 °C 1016.1 hPa NE 9.3 km/h 13.7 km/h 98 % 0.0 mm
07:31 10.4 °C 10.0 °C 1016.1 hPa NNE 9.7 km/h 13.7 km/h 98 % 0.0 mm
07:36 10.5 °C 11.0 °C 1016.8 hPa NE 10.1 km/h 11.6 km/h 98 % 0.0 mm
07:41 10.5 °C 11.0 °C 1016.8 hPa NE 8.7 km/h 13.7 km/h 98 % 0.0 mm
07:46 10.6 °C 11.0 °C 1016.8 hPa NE 9.3 km/h 13.7 km/h 98 % 0.0 mm
07:51 10.6 °C 11.0 °C 1016.8 hPa North 10.1 km/h 11.9 km/h 98 % 0.0 mm
07:56 10.6 °C 11.0 °C 1016.8 hPa NNE 5.8 km/h 13.7 km/h 98 % 0.0 mm
08:01 10.6 °C 11.0 °C 1016.8 hPa NE 10.5 km/h 13.7 km/h 98 % 0.0 mm
08:06 10.6 °C 11.0 °C 1016.1 hPa NNE 9.3 km/h 13.0 km/h 98 % 0.0 mm
08:11 10.7 °C 11.0 °C 1016.1 hPa North 11.6 km/h 11.9 km/h 98 % 0.3 mm
08:16 10.7 °C 11.0 °C 1016.1 hPa North 9.0 km/h 13.0 km/h 98 % 0.3 mm
08:21 10.9 °C 11.0 °C 1016.8 hPa NE 9.3 km/h 13.0 km/h 98 % 0.3 mm
08:26 10.9 °C 11.0 °C 1016.8 hPa NNE 7.9 km/h 12.2 km/h 98 % 0.3 mm
08:31 10.9 °C 11.0 °C 1016.8 hPa NE 6.1 km/h 12.2 km/h 98 % 0.3 mm
08:36 10.9 °C 11.0 °C 1016.8 hPa NNE 10.5 km/h 12.2 km/h 98 % 0.3 mm
08:41 10.9 °C 11.0 °C 1016.8 hPa NE 9.3 km/h 12.2 km/h 98 % 0.3 mm
08:46 10.9 °C 11.0 °C 1016.8 hPa NNE 6.4 km/h 11.9 km/h 98 % 0.3 mm
08:51 11.0 °C 11.0 °C 1016.8 hPa NE 9.3 km/h 11.6 km/h 98 % 0.3 mm
08:56 11.2 °C 11.0 °C 1016.8 hPa NNE 6.1 km/h 11.6 km/h 98 % 0.3 mm
09:02 11.4 °C 11.0 °C 1016.8 hPa North 9.3 km/h 12.6 km/h 98 % 0.3 mm
09:06 11.5 °C 12.0 °C 1016.8 hPa North 3.2 km/h 12.6 km/h 98 % 0.3 mm
09:12 11.7 °C 12.0 °C 1016.8 hPa North 6.1 km/h 13.0 km/h 98 % 0.0 mm
09:16 11.9 °C 12.0 °C 1016.8 hPa NNE 4.7 km/h 13.0 km/h 98 % 0.0 mm
09:22 12.0 °C 12.0 °C 1016.8 hPa North 11.9 km/h 14.0 km/h 98 % 0.0 mm
09:26 12.0 °C 12.0 °C 1016.8 hPa NNE 10.5 km/h 14.0 km/h 98 % 0.0 mm
09:32 12.0 °C 12.0 °C 1016.8 hPa ENE 10.1 km/h 15.1 km/h 98 % 0.0 mm
09:37 11.9 °C 12.0 °C 1016.8 hPa NE 9.0 km/h 19.5 km/h 98 % 0.0 mm
09:42 12.0 °C 12.0 °C 1016.8 hPa NNE 12.2 km/h 19.5 km/h 97 % 0.0 mm
09:47 12.0 °C 12.0 °C 1016.8 hPa NE 8.7 km/h 14.3 km/h 97 % 0.0 mm
09:52 12.0 °C 12.0 °C 1016.8 hPa NNE 9.7 km/h 13.7 km/h 97 % 0.0 mm
09:57 12.0 °C 12.0 °C 1016.8 hPa NNE 7.9 km/h 13.0 km/h 97 % 0.0 mm
10:02 12.0 °C 12.0 °C 1016.8 hPa ENE 12.2 km/h 13.0 km/h 97 % 0.0 mm
10:07 12.0 °C 12.0 °C 1016.8 hPa East 11.6 km/h 13.0 km/h 97 % 0.0 mm
10:12 11.9 °C 12.0 °C 1016.8 hPa NE 15.1 km/h 16.6 km/h 97 % 0.0 mm
10:17 11.9 °C 12.0 °C 1016.8 hPa NE 10.5 km/h 16.6 km/h 97 % 0.0 mm
10:22 12.0 °C 12.0 °C 1016.8 hPa NNE 11.6 km/h 15.1 km/h 97 % 0.0 mm
10:24 12.0 °C 12.0 °C 1016.8 hPa NE 13.0 km/h 14.0 km/h 97 % 0.0 mm
10:29 12.0 °C 12.0 °C 1016.8 hPa NNE 11.9 km/h 16.6 km/h 97 % 0.0 mm
10:34 12.1 °C 12.0 °C 1016.8 hPa NE 14.0 km/h 21.2 km/h 97 % 0.0 mm
10:39 12.1 °C 12.0 °C 1016.8 hPa NE 16.6 km/h 21.2 km/h 97 % 0.0 mm
10:44 12.1 °C 12.0 °C 1016.8 hPa NNE 9.0 km/h 17.7 km/h 96 % 0.0 mm
10:49 12.1 °C 12.0 °C 1016.8 hPa NE 12.6 km/h 16.6 km/h 96 % 0.0 mm
10:54 12.2 °C 12.0 °C 1016.8 hPa NE 12.2 km/h 16.6 km/h 97 % 0.0 mm
10:59 12.8 °C 13.0 °C 1016.8 hPa NE 16.3 km/h 16.3 km/h 97 % 0.3 mm
11:04 12.9 °C 13.0 °C 1016.8 hPa NNE 9.3 km/h 18.0 km/h 97 % 0.3 mm
11:09 12.9 °C 13.0 °C 1016.8 hPa NNE 12.2 km/h 18.0 km/h 97 % 0.3 mm
11:14 12.9 °C 13.0 °C 1016.8 hPa NE 10.5 km/h 16.6 km/h 97 % 0.3 mm
11:19 13.0 °C 13.0 °C 1016.8 hPa NE 9.0 km/h 15.4 km/h 96 % 0.3 mm
11:24 12.8 °C 13.0 °C 1016.8 hPa NNE 14.0 km/h 17.2 km/h 96 % 0.3 mm
11:29 12.7 °C 13.0 °C 1016.8 hPa NNW 13.0 km/h 17.7 km/h 96 % 0.3 mm
11:34 12.8 °C 13.0 °C 1016.8 hPa NE 11.9 km/h 17.7 km/h 96 % 0.3 mm
11:39 13.4 °C 13.0 °C 1016.1 hPa NE 11.9 km/h 16.6 km/h 96 % 0.3 mm
11:44 13.9 °C 14.0 °C 1016.1 hPa NE 12.2 km/h 16.9 km/h 96 % 0.3 mm
11:50 13.7 °C 13.0 °C 1016.1 hPa NE 17.7 km/h 17.7 km/h 95 % 0.3 mm
11:55 13.6 °C 13.0 °C 1016.8 hPa NE 9.3 km/h 17.7 km/h 94 % 0.3 mm
12:00 13.5 °C 13.0 °C 1016.8 hPa NNE 11.9 km/h 15.8 km/h 94 % 0.0 mm
12:05 13.5 °C 13.0 °C 1016.8 hPa NE 12.6 km/h 17.7 km/h 94 % 0.0 mm
12:10 13.6 °C 13.0 °C 1016.8 hPa North 16.6 km/h 17.7 km/h 94 % 0.0 mm
12:15 13.9 °C 13.0 °C 1016.8 hPa NE 6.1 km/h 16.6 km/h 94 % 0.0 mm
12:20 14.1 °C 13.0 °C 1016.8 hPa NE 16.3 km/h 16.3 km/h 93 % 0.0 mm
12:25 14.1 °C 13.0 °C 1016.8 hPa NNE 12.6 km/h 20.1 km/h 91 % 0.0 mm
12:30 14.3 °C 13.0 °C 1016.8 hPa NNE 15.8 km/h 20.9 km/h 90 % 0.0 mm
12:35 14.4 °C 13.0 °C 1016.8 hPa NE 12.2 km/h 20.9 km/h 90 % 0.0 mm
12:40 14.2 °C 13.0 °C 1016.8 hPa NNE 14.0 km/h 20.1 km/h 88 % 0.0 mm
12:45 14.1 °C 12.0 °C 1016.8 hPa NE 13.7 km/h 21.2 km/h 87 % 0.0 mm
12:50 14.2 °C 12.0 °C 1016.8 hPa NE 13.0 km/h 21.2 km/h 86 % 0.0 mm
12:55 14.4 °C 13.0 °C 1016.8 hPa NNE 10.5 km/h 16.9 km/h 87 % 0.0 mm
13:00 14.4 °C 13.0 °C 1016.8 hPa East 11.9 km/h 16.9 km/h 87 % 0.0 mm
13:05 14.4 °C 13.0 °C 1016.8 hPa NE 16.3 km/h 16.3 km/h 87 % 0.0 mm
13:10 14.4 °C 12.0 °C 1016.8 hPa NE 15.8 km/h 20.9 km/h 86 % 0.0 mm
13:15 14.3 °C 12.0 °C 1016.8 hPa NE 17.2 km/h 20.9 km/h 85 % 0.0 mm
13:20 14.1 °C 12.0 °C 1016.8 hPa NNE 9.3 km/h 17.2 km/h 86 % 0.0 mm
13:22 14.2 °C 12.0 °C 1016.8 hPa NNE 13.0 km/h 17.2 km/h 86 % 0.0 mm
13:27 14.4 °C 12.0 °C 1016.8 hPa NE 14.0 km/h 15.4 km/h 86 % 0.0 mm
13:33 14.7 °C 13.0 °C 1016.8 hPa NE 10.5 km/h 15.1 km/h 86 % 0.0 mm
13:38 14.9 °C 13.0 °C 1016.8 hPa NE 11.9 km/h 14.0 km/h 86 % 0.0 mm
13:43 14.8 °C 13.0 °C 1016.8 hPa NE 14.0 km/h 16.3 km/h 85 % 0.0 mm
13:48 14.9 °C 13.0 °C 1016.8 hPa ESE 9.0 km/h 16.3 km/h 84 % 0.0 mm
13:53 15.2 °C 13.0 °C 1016.8 hPa ENE 12.2 km/h 16.6 km/h 84 % 0.0 mm
13:58 15.6 °C 13.0 °C 1016.8 hPa ENE 12.6 km/h 16.6 km/h 83 % 0.0 mm
14:03 16.1 °C 13.0 °C 1016.8 hPa East 10.1 km/h 16.3 km/h 82 % 0.0 mm
14:08 16.4 °C 13.0 °C 1016.8 hPa ENE 17.2 km/h 17.2 km/h 81 % 0.0 mm
14:13 16.2 °C 12.0 °C 1016.8 hPa NE 15.8 km/h 19.8 km/h 76 % 0.0 mm
14:18 16.6 °C 13.0 °C 1016.8 hPa NE 15.8 km/h 20.1 km/h 76 % 0.0 mm
14:23 16.7 °C 12.0 °C 1016.8 hPa NNE 11.9 km/h 20.1 km/h 74 % 0.0 mm
14:28 16.5 °C 13.0 °C 1016.8 hPa NE 14.0 km/h 20.1 km/h 75 % 0.0 mm
14:33 16.5 °C 13.0 °C 1016.8 hPa North 15.4 km/h 16.3 km/h 76 % 0.0 mm
14:38 16.0 °C 12.0 °C 1016.8 hPa NE 11.9 km/h 16.3 km/h 74 % 0.0 mm
14:43 15.9 °C 12.0 °C 1016.8 hPa ENE 13.0 km/h 17.2 km/h 75 % 0.0 mm
14:48 15.8 °C 12.0 °C 1016.8 hPa NE 13.7 km/h 19.8 km/h 76 % 0.0 mm
14:53 16.3 °C 13.0 °C 1016.8 hPa NE 11.9 km/h 19.8 km/h 77 % 0.0 mm
14:58 16.1 °C 12.0 °C 1016.8 hPa NE 16.9 km/h 18.0 km/h 75 % 0.0 mm
15:03 16.5 °C 13.0 °C 1016.8 hPa ENE 14.0 km/h 16.9 km/h 75 % 0.0 mm
15:08 16.6 °C 12.0 °C 1016.8 hPa North 16.9 km/h 19.5 km/h 74 % 0.0 mm
15:13 16.1 °C 12.0 °C 1016.8 hPa NE 9.0 km/h 19.5 km/h 74 % 0.0 mm
15:18 16.5 °C 13.0 °C 1016.8 hPa NE 13.7 km/h 16.6 km/h 75 % 0.0 mm
15:23 16.0 °C 11.0 °C 1016.8 hPa NE 12.2 km/h 17.7 km/h 73 % 0.0 mm
15:25 16.2 °C 12.0 °C 1016.8 hPa East 6.1 km/h 17.7 km/h 74 % 0.0 mm
15:30 16.8 °C 12.0 °C 1016.8 hPa NE 16.3 km/h 17.7 km/h 74 % 0.0 mm
15:35 16.4 °C 12.0 °C 1016.8 hPa NE 13.7 km/h 20.1 km/h 73 % 0.0 mm
15:40 16.4 °C 12.0 °C 1016.8 hPa NE 20.1 km/h 20.1 km/h 72 % 0.0 mm
15:43 16.0 °C 11.0 °C 1016.8 hPa NE 19.8 km/h 20.1 km/h 72 % 0.0 mm
15:48 15.7 °C 11.0 °C 1016.8 hPa NE 16.6 km/h 23.8 km/h 74 % 0.0 mm
15:53 15.7 °C 11.0 °C 1016.8 hPa NNE 9.0 km/h 23.8 km/h 74 % 0.0 mm
15:58 15.4 °C 11.0 °C 1016.8 hPa NE 13.0 km/h 17.7 km/h 74 % 0.0 mm
16:03 15.2 °C 11.0 °C 1016.8 hPa NE 13.0 km/h 20.9 km/h 74 % 0.0 mm
16:08 15.1 °C 11.0 °C 1016.8 hPa North 16.6 km/h 20.9 km/h 76 % 0.0 mm
16:13 15.2 °C 12.0 °C 1016.8 hPa NNE 11.6 km/h 21.9 km/h 77 % 0.0 mm
16:18 15.2 °C 11.0 °C 1016.8 hPa NNE 16.3 km/h 21.9 km/h 76 % 0.0 mm
16:23 15.3 °C 11.0 °C 1016.8 hPa North 13.7 km/h 20.9 km/h 75 % 0.0 mm
16:28 15.5 °C 12.0 °C 1016.8 hPa NNE 13.7 km/h 20.9 km/h 75 % 0.0 mm
16:33 15.5 °C 12.0 °C 1016.8 hPa North 16.3 km/h 19.8 km/h 75 % 0.0 mm
16:38 15.5 °C 11.0 °C 1016.8 hPa NNE 13.7 km/h 16.3 km/h 74 % 0.0 mm
16:43 15.4 °C 11.0 °C 1016.8 hPa NE 14.0 km/h 17.2 km/h 73 % 0.0 mm
16:48 15.5 °C 11.0 °C 1016.8 hPa ENE 9.7 km/h 17.2 km/h 73 % 0.0 mm
16:54 15.6 °C 11.0 °C 1016.8 hPa NE 9.7 km/h 16.6 km/h 73 % 0.0 mm
16:59 15.7 °C 11.0 °C 1016.8 hPa North 15.8 km/h 15.8 km/h 74 % 0.0 mm
17:04 15.8 °C 11.0 °C 1016.8 hPa NNE 12.6 km/h 16.3 km/h 73 % 0.0 mm
17:09 15.9 °C 12.0 °C 1016.8 hPa NE 13.0 km/h 16.3 km/h 74 % 0.0 mm
17:14 16.0 °C 11.0 °C 1016.8 hPa NNE 13.7 km/h 17.7 km/h 73 % 0.0 mm
17:19 16.7 °C 12.0 °C 1016.8 hPa NNE 11.9 km/h 17.7 km/h 72 % 0.0 mm
17:24 16.5 °C 11.0 °C 1016.8 hPa NE 12.6 km/h 16.3 km/h 70 % 0.0 mm
17:29 16.8 °C 11.0 °C 1016.8 hPa NE 13.7 km/h 16.6 km/h 70 % 0.0 mm
17:34 16.7 °C 11.0 °C 1016.8 hPa NE 11.6 km/h 17.2 km/h 68 % 0.0 mm
17:39 17.0 °C 11.0 °C 1016.8 hPa NE 10.1 km/h 17.2 km/h 67 % 0.0 mm
17:44 17.3 °C 11.0 °C 1016.8 hPa NE 9.7 km/h 15.4 km/h 67 % 0.0 mm
17:49 17.6 °C 12.0 °C 1016.8 hPa NE 11.9 km/h 15.4 km/h 68 % 0.0 mm
17:54 16.6 °C 10.0 °C 1016.8 hPa NE 10.5 km/h 16.3 km/h 66 % 0.0 mm
17:56 16.5 °C 11.0 °C 1016.8 hPa NE 12.2 km/h 16.3 km/h 67 % 0.0 mm
18:01 16.0 °C 10.0 °C 1016.8 hPa NE 5.5 km/h 14.3 km/h 67 % 0.0 mm
18:06 15.9 °C 10.0 °C 1016.8 hPa North 12.6 km/h 19.8 km/h 68 % 0.0 mm
18:11 15.5 °C 10.0 °C 1016.8 hPa NE 12.6 km/h 19.8 km/h 68 % 0.0 mm
18:16 15.3 °C 10.0 °C 1016.8 hPa NNE 9.0 km/h 15.8 km/h 70 % 0.0 mm
18:21 15.9 °C 11.0 °C 1016.8 hPa NE 7.9 km/h 13.7 km/h 71 % 0.0 mm
18:26 16.3 °C 11.0 °C 1016.8 hPa NNE 13.0 km/h 16.9 km/h 69 % 0.0 mm
18:32 16.0 °C 10.0 °C 1016.8 hPa NNE 10.5 km/h 17.7 km/h 69 % 0.0 mm
18:37 16.1 °C 11.0 °C 1016.8 hPa North 13.0 km/h 17.7 km/h 70 % 0.0 mm
18:42 16.3 °C 11.0 °C 1016.8 hPa NNW 10.5 km/h 16.3 km/h 70 % 0.0 mm
18:47 16.4 °C 11.0 °C 1016.8 hPa North 13.7 km/h 16.3 km/h 70 % 0.0 mm
18:52 16.5 °C 11.0 °C 1016.8 hPa North 13.0 km/h 15.8 km/h 69 % 0.0 mm
18:57 16.4 °C 11.0 °C 1016.8 hPa North 11.9 km/h 17.2 km/h 69 % 0.0 mm
19:02 16.5 °C 11.0 °C 1016.8 hPa WNW 2.6 km/h 17.2 km/h 70 % 0.0 mm
19:07 16.4 °C 11.0 °C 1016.8 hPa NNW 8.7 km/h 14.8 km/h 69 % 0.0 mm
19:13 16.3 °C 11.0 °C 1016.8 hPa North 10.5 km/h 14.8 km/h 69 % 0.0 mm
19:18 16.2 °C 11.0 °C 1016.8 hPa North 12.6 km/h 14.0 km/h 70 % 0.0 mm
19:23 16.0 °C 11.0 °C 1016.1 hPa North 8.7 km/h 16.9 km/h 70 % 0.0 mm
19:28 16.0 °C 11.0 °C 1016.1 hPa ENE 10.5 km/h 16.9 km/h 71 % 0.0 mm
19:33 15.9 °C 11.0 °C 1016.1 hPa NNE 13.7 km/h 16.6 km/h 72 % 0.0 mm
19:38 15.6 °C 11.0 °C 1016.8 hPa North 9.7 km/h 16.6 km/h 72 % 0.0 mm
19:43 15.4 °C 11.0 °C 1016.8 hPa North 9.0 km/h 16.3 km/h 73 % 0.0 mm
19:48 15.3 °C 11.0 °C 1016.8 hPa North 10.5 km/h 16.9 km/h 73 % 0.0 mm
19:53 15.2 °C 11.0 °C 1016.8 hPa NNE 9.0 km/h 16.9 km/h 74 % 0.0 mm
19:58 15.2 °C 11.0 °C 1016.8 hPa North 13.0 km/h 15.1 km/h 74 % 0.0 mm
20:03 15.1 °C 11.0 °C 1016.8 hPa North 14.0 km/h 16.3 km/h 74 % 0.0 mm
20:08 14.9 °C 11.0 °C 1016.8 hPa NNE 1.4 km/h 16.3 km/h 75 % 0.0 mm
20:13 14.7 °C 11.0 °C 1016.8 hPa North 13.0 km/h 14.0 km/h 76 % 0.0 mm
20:18 14.4 °C 11.0 °C 1016.8 hPa NNE 12.2 km/h 16.6 km/h 77 % 0.0 mm
20:23 14.3 °C 11.0 °C 1016.8 hPa North 4.7 km/h 16.6 km/h 78 % 0.0 mm
20:29 14.1 °C 10.0 °C 1016.8 hPa NNE 7.9 km/h 12.2 km/h 78 % 0.0 mm
20:34 14.0 °C 11.0 °C 1016.8 hPa NNE 5.5 km/h 12.2 km/h 79 % 0.0 mm
20:39 13.8 °C 11.0 °C 1016.8 hPa North 5.0 km/h 12.2 km/h 80 % 0.0 mm
20:44 13.7 °C 11.0 °C 1016.8 hPa North 5.5 km/h 12.2 km/h 81 % 0.0 mm
20:49 13.5 °C 11.0 °C 1016.8 hPa North 9.0 km/h 10.5 km/h 81 % 0.0 mm
20:54 13.4 °C 11.0 °C 1016.8 hPa NE 6.1 km/h 10.5 km/h 82 % 0.0 mm
20:59 13.3 °C 11.0 °C 1016.8 hPa North 9.7 km/h 12.2 km/h 82 % 0.0 mm
21:04 13.2 °C 11.0 °C 1016.8 hPa North 4.0 km/h 12.2 km/h 82 % 0.0 mm
21:09 13.1 °C 10.0 °C 1018.2 hPa NW 10.1 km/h 10.1 km/h 82 % 0.0 mm
21:14 13.0 °C 10.0 °C 1018.2 hPa North 5.0 km/h 12.2 km/h 83 % 0.0 mm
21:19 12.9 °C 11.0 °C 1018.2 hPa NE 9.7 km/h 12.2 km/h 84 % 0.0 mm
21:24 12.9 °C 10.0 °C 1018.2 hPa NE 12.2 km/h 16.6 km/h 83 % 0.0 mm
21:29 12.9 °C 10.0 °C 1018.2 hPa NE 14.8 km/h 16.6 km/h 83 % 0.0 mm
21:34 12.8 °C 10.0 °C 1018.2 hPa NE 10.1 km/h 16.3 km/h 82 % 0.0 mm
21:39 12.7 °C 10.0 °C 1018.2 hPa NNE 11.9 km/h 15.4 km/h 82 % 0.0 mm
21:44 12.6 °C 10.0 °C 1018.2 hPa NNE 13.7 km/h 15.4 km/h 83 % 0.0 mm
21:49 12.5 °C 10.0 °C 1018.2 hPa NE 6.1 km/h 14.0 km/h 83 % 0.0 mm
21:55 12.5 °C 10.0 °C 1018.2 hPa NE 17.2 km/h 18.0 km/h 83 % 0.0 mm
22:00 12.5 °C 10.0 °C 1018.2 hPa NE 11.6 km/h 23.3 km/h 83 % 0.0 mm
22:05 12.6 °C 10.0 °C 1018.2 hPa NNE 13.0 km/h 23.3 km/h 83 % 0.0 mm
22:10 12.6 °C 10.0 °C 1018.8 hPa NE 9.0 km/h 22.7 km/h 83 % 0.0 mm
22:15 12.6 °C 10.0 °C 1018.8 hPa NE 9.7 km/h 16.9 km/h 83 % 0.0 mm
22:20 12.6 °C 10.0 °C 1018.8 hPa NE 11.9 km/h 17.2 km/h 83 % 0.0 mm
22:25 12.5 °C 10.0 °C 1018.8 hPa NE 14.0 km/h 17.2 km/h 83 % 0.0 mm
22:30 12.5 °C 10.0 °C 1018.8 hPa NE 12.2 km/h 15.4 km/h 84 % 0.0 mm
22:34 12.5 °C 10.0 °C 1018.8 hPa NE 13.0 km/h 16.9 km/h 84 % 0.0 mm
22:39 12.5 °C 10.0 °C 1018.8 hPa ENE 12.2 km/h 16.9 km/h 84 % 0.0 mm
22:44 12.4 °C 10.0 °C 1018.8 hPa NNE 12.6 km/h 14.0 km/h 84 % 0.0 mm
22:49 12.3 °C 10.0 °C 1018.8 hPa ENE 13.7 km/h 14.0 km/h 84 % 0.0 mm
22:54 12.2 °C 10.0 °C 1018.8 hPa NE 15.8 km/h 16.9 km/h 84 % 0.0 mm
22:59 12.2 °C 10.0 °C 1018.8 hPa NE 13.0 km/h 16.9 km/h 84 % 0.0 mm
23:04 12.1 °C 10.0 °C 1018.8 hPa NE 10.1 km/h 15.8 km/h 85 % 0.0 mm
23:09 12.1 °C 10.0 °C 1018.8 hPa NE 11.9 km/h 13.0 km/h 85 % 0.0 mm
23:14 12.0 °C 10.0 °C 1018.8 hPa NE 11.9 km/h 14.0 km/h 85 % 0.0 mm
23:19 11.9 °C 10.0 °C 1018.8 hPa ENE 10.1 km/h 14.0 km/h 85 % 0.0 mm
23:24 11.8 °C 9.0 °C 1018.8 hPa NE 9.7 km/h 13.7 km/h 86 % 0.0 mm
23:29 11.7 °C 9.0 °C 1018.8 hPa NNE 10.1 km/h 13.0 km/h 86 % 0.0 mm
23:34 11.7 °C 9.0 °C 1018.8 hPa NE 12.2 km/h 12.6 km/h 86 % 0.0 mm
23:39 11.6 °C 10.0 °C 1018.8 hPa NNE 10.5 km/h 13.7 km/h 87 % 0.0 mm
23:44 11.6 °C 10.0 °C 1018.8 hPa North 9.7 km/h 14.0 km/h 88 % 0.0 mm
23:49 11.6 °C 10.0 °C 1018.8 hPa NNE 14.0 km/h 14.0 km/h 88 % 0.0 mm
23:54 11.7 °C 10.0 °C 1018.8 hPa North 10.5 km/h 14.0 km/h 87 % 0.0 mm
23:59 11.7 °C 10.0 °C 1018.8 hPa NE 10.1 km/h 14.0 km/h 88 % 0.0 mm
Le Gheer Warneton
Courtoisie de Weather Underground - 2.5 mb

Mise a jour : 18/12/2017 21:30:12
Généré par Cumulus 1.9.4 (1099)